RH
55 56 57 57 57 57 56 54 53 53 51 51 52 53 53 63 75 79 74 66 58 53 49 46 43 39 41 43 42 45 46 46 51 53 52 53 51 51 61 70 74 75 78 81 85 89 95 98 100 99 97 92 93 99 100 99 100 100 99 100 99 99 100 101 100 100 100 99 98 100 96 83 72 65
51 53 54 56 57 57 57 56 55 54 54 53 53 55 53 56 68 79 81 72 58 53 52 47 45 44 42 45 46 46 47 47 49 50 49 49 46 51 62 68 69 73 76 79 83 86 92 96 97 100 100 95 95 100 100 100 100 97 97 99 98 98 101 101 100 100 100 98 97 100 98 90 80 70
49 50 50 51 54 55 56 56 57 55 55 55 54 55 55 55 59 65 77 80 65 53 53 48 46 47 46 47 49 50 51 50 49 48 47 46 48 52 58 59 63 69 73 76 81 84 89 94 96 98 99 98 97 99 100 101 99 94 94 98 99 99 100 101 100 100 100 99 98 100 100 98 93 81
47 47 47 47 49 51 52 53 54 55 55 55 55 55 55 55 56 57 68 80 70 54 52 52 50 52 52 52 53 54 55 54 51 50 48 48 49 51 51 52 57 64 69 73 77 79 84 92 97 98 99 100 99 99 100 101 98 94 94 96 97 100 101 100 101 100 99 99 99 101 100 100 100 93
46 45 44 45 44 46 48 49 50 51 52 53 54 54 54 53 53 53 59 71 70 58 55 57 58 59 60 61 61 61 60 59 56 54 53 52 51 51 51 50 52 58 65 68 71 76 82 90 94 92 94 97 98 98 98 99 100 96 94 95 96 100 101 100 100 100 98 97 98 100 100 100 101 99
45 45 45 44 43 43 44 46 47 48 48 48 49 49 50 50 49 48 51 61 70 67 62 62 63 63 65 67 67 66 64 63 61 59 57 55 53 53 52 51 50 53 59 64 70 77 83 85 83 82 87 91 94 98 99 99 99 91 88 93 94 98 101 99 99 100 99 98 96 97 99 99 101 101
46 47 47 46 45 45 44 45 46 46 45 44 44 44 44 44 44 45 47 56 68 72 70 68 68 68 69 70 69 69 68 67 65 62 59 57 55 54 52 52 51 50 58 68 73 75 74 73 73 76 83 87 92 98 98 98 97 88 84 88 88 94 100 100 98 98 98 100 97 92 90 89 93 98
47 48 49 49 48 48 48 47 47 46 46 45 44 44 43 43 45 47 51 56 63 71 74 74 74 73 73 72 71 71 70 69 66 62 59 58 57 56 55 55 52 52 61 69 68 67 66 66 68 73 77 81 87 91 89 90 96 93 90 86 82 88 98 100 99 98 97 99 96 90 86 84 87 92
47 49 50 51 51 51 52 52 51 49 49 49 48 47 46 46 50 55 60 62 62 69 77 80 79 77 76 74 73 72 71 70 68 63 61 61 59 57 56 55 53 54 60 60 56 57 59 60 63 66 69 73 79 85 85 83 87 90 89 83 76 81 93 98 99 100 99 98 97 94 89 88 92 94
48 49 51 53 53 54 55 55 55 55 54 54 54 52 50 50 52 58 66 70 70 72 79 81 80 79 77 74 72 71 70 70 68 66 64 61 60 60 62 61 58 57 57 54 49 49 49 51 57 61 67 72 75 82 87 83 80 84 86 79 70 72 83 93 98 100 100 100 99 96 91 89 95 100
50 51 52 54 55 57 58 59 59 59 60 60 58 56 54 54 56 59 64 70 75 77 79 80 80 78 76 74 72 70 69 68 67 66 67 67 65 65 66 66 64 60 56 53 49 48 48 52 59 65 73 78 77 79 84 78 70 76 83 79 70 67 72 83 94 100 100 100 100 97 93 91 92 95
51 52 53 55 56 58 60 60 61 62 64 65 64 61 59 59 61 63 63 67 72 74 76 76 75 75 74 73 71 70 70 71 69 67 69 71 69 67 66 67 65 60 57 55 53 51 51 53 57 64 73 80 81 82 81 73 64 68 78 78 70 66 66 70 81 94 101 100 99 99 97 93 90 89
53 53 55 56 57 60 62 62 62 62 64 66 67 67 67 67 68 69 68 69 70 72 76 77 75 76 77 75 73 73 73 73 71 68 69 70 69 69 69 67 62 59 60 60 57 53 53 51 50 56 67 76 83 86 83 76 68 65 71 74 68 61 58 60 67 80 94 101 99 98 98 97 93 90
56 56 56 58 58 60 62 63 64 68 71 72 72 70 70 70 73 75 76 75 74 75 79 79 78 81 82 78 76 76 73 72 72 71 72 72 69 69 73 70 63 63 66 64 58 50 46 46 46 50 60 70 78 83 83 85 80 70 67 69 66 61 53 50 56 64 77 94 100 97 96 97 96 94
59 59 59 60 61 62 64 66 70 77 81 82 82 81 79 76 74 74 77 79 80 80 81 81 81 85 85 81 78 77 75 74 76 75 72 73 73 74 82 85 75 67 66 70 69 52 37 43 53 54 57 63 69 74 78 87 90 84 78 71 68 72 64 47 46 50 57 76 94 98 97 96 96 97
62 63 64 63 64 66 67 69 73 79 82 86 90 92 93 92 88 83 80 78 79 81 84 86 86 86 86 84 80 77 77 75 75 74 72 75 79 80 86 91 83 70 68 78 85 65 39 46 64 62 58 61 63 65 71 81 90 91 90 83 77 85 84 60 43 45 50 62 78 90 97 96 93 94
66 67 69 70 71 70 71 72 75 76 78 84 92 97 99 100 100 97 93 88 83 79 81 86 88 86 85 84 81 76 76 76 75 75 74 75 79 79 83 89 86 81 80 86 94 77 47 51 72 71 66 67 64 63 65 73 85 88 88 90 87 89 95 81 59 51 53 60 68 75 86 95 95 92
69 70 72 75 76 76 77 78 79 80 79 83 93 100 101 100 100 100 100 99 96 89 84 83 83 81 81 81 79 75 76 77 75 74 74 75 78 81 85 89 86 81 77 79 92 86 58 58 79 78 70 70 64 62 65 66 75 83 84 89 92 91 94 92 81 71 66 67 67 64 67 82 94 93
69 70 74 78 79 81 82 82 84 88 90 92 98 101 101 100 100 101 99 99 101 100 96 91 85 82 81 78 75 72 74 78 78 78 78 80 84 87 88 89 81 70 65 72 92 96 72 67 85 84 76 76 65 57 60 59 61 70 76 80 87 90 93 94 92 89 81 78 76 67 57 62 79 92
72 73 75 79 83 85 86 87 90 95 98 100 101 101 100 100 100 101 100 98 99 100 100 99 93 87 83 82 80 76 74 76 77 78 81 82 82 86 91 95 87 72 69 76 90 97 82 74 87 91 85 82 70 57 56 57 55 58 64 72 78 83 88 92 94 92 84 77 78 78 69 55 55 73
80 79 77 80 85 90 93 94 97 100 101 101 101 100 100 101 100 100 100 99 99 100 100 100 98 93 90 93 95 92 88 86 80 81 86 86 87 93 98 99 90 76 70 73 83 96 92 80 87 97 90 78 72 71 71 71 69 63 61 68 75 78 82 88 92 95 90 80 76 82 86 70 49 48
89 86 83 81 84 88 94 99 100 101 101 100 101 100 100 100 100 100 101 100 100 100 100 101 100 99 98 99 100 98 97 95 92 94 94 89 91 101 100 96 93 82 70 71 84 96 93 83 86 98 96 81 73 75 78 80 83 77 65 62 69 75 79 84 88 92 95 92 85 81 83 79 62 46
96 93 91 90 89 88 92 98 100 101 101 100 101 100 100 101 100 99 99 100 99 99 100 99 100 101 101 100 100 100 98 96 96 100 99 92 93 100 97 95 98 92 79 79 88 89 85 85 92 99 99 93 81 73 73 78 87 91 79 65 65 71 74 80 86 90 92 95 94 88 84 82 76 63
100 97 96 98 98 97 97 100 100 100 100 100 100 100 101 100 96 94 98 100 101 100 98 96 96 99 101 100 100 101 100 99 99 100 100 99 96 95 93 92 95 95 84 75 77 79 78 86 97 98 95 98 93 82 77 79 87 96 91 74 66 69 72 77 83 87 91 94 94 93 90 87 85 75
101 101 99 99 100 99 98 100 101 100 100 100 101 100 96 89 86 90 95 98 100 101 99 98 97 98 99 99 99 99 99 99 98 97 99 101 100 99 98 94 95 97 83 63 65 80 87 91 99 97 90 95 101 96 88 84 85 95 100 88 75 72 76 79 80 82 88 93 95 96 93 91 92 86
100 100 98 99 100 98 95 97 100 101 98 98 100 99 93 88 92 96 97 98 101 101 100 101 100 99 98 94 90 88 87 86 86 86 88 91 94 97 97 94 96 95 76 59 65 83 93 95 98 97 95 97 101 99 96 91 86 89 98 98 90 84 82 82 82 83 85 89 93 95 95 92 93 95
100 99 97 97 96 92 91 95 98 98 97 97 99 99 97 97 101 101 99 100 102 100 100 101 100 100 101 95 88 85 83 81 80 80 80 80 83 87 87 86 89 84 70 64 71 78 84 88 86 87 96 102 100 99 99 96 92 91 95 98 97 94 88 81 81 84 85 87 90 90 92 93 93 94
92 96 98 95 91 87 87 91 94 95 96 95 93 94 98 101 101 100 100 101 100 100 101 100 100 100 98 92 85 79 75 74 76 77 79 79 80 83 83 81 80 77 73 74 77 77 83 87 81 82 94 101 100 100 100 98 97 98 97 95 93 95 93 86 83 86 87 87 90 92 92 94 93 93
84 88 90 88 86 85 84 86 90 93 95 92 89 89 96 100 100 100 101 100 100 101 100 99 101 100 92 82 75 69 67 69 75 79 83 86 87 88 87 86 84 84 83 85 87 88 92 94 90 90 98 101 100 101 100 99 100 98 94 94 93 92 95 95 91 91 91 89 92 97 97 96 94 94
86 84 84 83 83 84 85 87 90 94 95 95 94 95 97 100 101 100 100 100 100 101 100 100 100 95 84 76 74 74 75 75 75 77 82 88 93 93 93 94 92 89 87 88 91 93 96 97 97 98 101 100 99 101 100 99 102 97 90 93 96 92 94 100 98 94 94 94 96 99 99 98 97 97
94 87 84 83 83 85 89 92 94 94 95 96 98 99 100 100 100 100 100 100 100 100 100 99 97 92 88 86 87 90 92 87 79 76 79 82 84 87 92 97 96 89 82 81 85 90 94 97 97 98 101 100 99 101 100 98 102 100 88 87 94 93 93 97 97 95 96 95 91 90 90 90 92 94
99 94 89 87 87 88 92 97 98 98 99 98 99 100 100 100 100 100 100 100 100 100 99 97 94 92 93 94 94 95 99 97 88 83 83 83 82 86 94 100 100 96 89 84 84 89 94 98 97 97 100 101 99 100 100 97 99 99 91 86 88 88 90 96 98 99 99 94 88 89 90 90 91 94
101 98 96 94 94 94 96 99 100 100 101 100 100 101 100 100 100 100 100 101 101 98 92 87 84 81 79 81 84 87 92 96 95 93 93 92 91 94 99 100 100 101 99 96 92 90 90 92 93 95 99 101 100 100 101 99 98 96 93 92 89 83 87 98 102 96 91 90 93 98 99 97 98 100
101 101 100 98 96 93 93 96 98 99 100 100 100 100 101 100 100 100 100 98 94 89 82 78 76 73 70 70 75 79 83 87 91 94 98 99 99 100 101 100 100 100 100 99 95 91 88 85 84 89 97 100 100 99 99 101 102 97 92 92 92 86 85 93 99 94 87 88 95 100 100 98 97 97
101 101 101 100 97 92 89 91 94 97 99 100 100 100 100 100 100 100 98 92 86 82 81 79 76 75 73 72 75 82 85 85 87 89 91 94 97 99 99 100 101 100 100 98 93 91 91 86 82 89 99 101 99 97 95 96 101 102 95 89 89 91 88 87 93 96 90 85 89 95 98 98 94 90
101 100 99 98 98 95 90 87 89 95 99 99 100 101 100 100 101 99 93 88 85 83 82 79 76 76 78 81 85 91 92 90 89 89 89 88 89 92 95 99 100 99 99 100 96 94 93 88 86 93 100 100 99 98 94 92 97 102 101 91 85 88 90 87 90 97 94 86 84 89 95 97 94 91
100 98 95 94 95 96 95 88 85 91 99 100 100 101 100 99 100 96 90 86 84 80 77 75 74 77 83 89 93 95 94 93 90 88 87 86 84 85 88 93 97 99 99 98 96 95 94 93 95 99 99 98 100 98 93 92 93 94 98 97 88 84 88 90 92 98 100 92 86 88 95 98 96 93
97 95 94 93 91 91 94 93 87 88 97 102 100 100 99 97 96 92 87 84 81 79 77 75 77 82 88 91 93 94 94 95 95 92 89 86 86 88 88 87 90 94 95 94 93 92 92 94 98 101 98 96 99 97 94 94 88 77 77 85 82 78 85 95 97 98 99 94 87 89 95 95 93 95
94 92 92 93 90 85 87 93 91 88 94 101 101 98 98 96 92 88 85 82 80 79 78 78 81 87 91 92 92 93 95 97 98 97 94 91 92 95 95 93 92 91 91 93 93 93 94 96 99 102 101 96 91 87 84 84 80 70 69 77 78 74 80 93 101 99 96 90 84 87 95 96 94 98
92 92 90 91 92 85 79 85 91 91 93 100 101 97 96 93 89 86 85 82 80 80 80 80 84 89 92 92 92 94 97 98 97 97 96 93 93 94 96 98 98 95 94 94 94 96 99 98 93 93 94 89 83 80 79 80 81 80 78 79 79 76 79 89 99 101 97 91 85 87 96 100 99 99
92 92 89 88 93 89 81 81 88 92 96 99 98 96 94 90 86 83 80 77 77 79 81 84 86 87 87 86 87 92 96 97 96 96 95 93 93 93 94 97 97 96 95 95 94 93 91 85 77 78 85 88 88 90 93 93 91 89 85 82 81 84 89 94 97 98 96 94 90 90 97 102 99 98
92 90 87 85 87 91 90 89 90 94 98 98 95 93 91 87 83 80 77 76 77 79 83 86 87 85 83 82 84 89 93 94 95 97 97 96 96 94 95 96 95 94 95 97 93 88 84 80 80 84 92 97 98 98 98 95 91 91 93 90 87 91 98 100 98 96 95 95 94 92 94 98 99 100
96 92 88 83 79 83 91 96 97 98 100 98 92 89 88 87 85 82 80 80 81 82 85 87 86 84 84 85 88 91 91 90 92 95 97 99 100 98 98 98 96 95 96 95 92 89 87 84 84 88 95 101 101 99 97 93 89 91 98 99 96 97 100 101 100 99 99 100 98 90 86 89 93 95
100 97 92 85 80 81 88 96 100 101 100 97 93 89 87 87 87 85 82 81 82 84 87 89 88 87 87 89 92 94 93 91 92 94 96 97 98 99 99 99 99 100 99 98 96 95 90 82 76 78 87 97 100 100 99 95 90 92 98 101 100 100 100 100 100 100 100 101 98 90 86 91 94 91
101 101 98 94 91 90 91 95 101 101 98 94 92 91 89 88 87 87 86 84 85 88 90 90 89 88 88 90 91 93 93 94 95 97 98 98 98 100 100 100 100 100 97 97 99 97 89 82 75 69 72 81 90 96 100 97 92 93 98 101 100 100 100 100 100 100 100 101 98 93 93 98 98 92
Wind_Speed
27 26 26 27 28 28 27 27 26 24 23 19 16 13 11 8 5 3 5 5 5 8 11 11 11 12 12 11 10 10 11 12 14 16 18 19 22 24 23 23 23 22 24 24 24 25 24 24 23 22 21 19 19 21 23 24 27 30 33 37 39 36 29 25 17 9 15 18 19 21 20 20 22 19
28 27 26 26 26 26 26 27 27 26 25 23 21 18 16 14 10 6 5 7 7 9 12 12 13 15 17 17 15 15 15 16 17 19 21 22 23 24 22 21 21 22 23 23 23 24 24 24 24 23 22 20 19 21 22 23 25 28 31 36 36 34 31 28 26 17 7 13 17 17 18 19 20 20
29 28 28 27 26 26 25 25 26 27 27 26 24 22 20 20 18 14 8 6 9 11 11 12 14 16 18 19 20 21 21 20 20 19 19 20 20 21 21 20 21 22 22 22 22 22 23 23 23 23 22 21 20 20 21 22 24 24 29 34 34 33 32 29 28 24 16 9 13 14 15 19 20 19
29 28 29 29 28 27 26 25 25 26 27 27 26 24 23 22 21 20 14 7 9 15 14 13 16 18 19 21 23 23 23 21 20 18 17 18 18 19 21 21 21 21 21 21 22 22 22 22 22 22 22 22 21 21 20 20 22 23 27 32 32 30 31 31 30 26 22 18 12 9 9 14 19 18
29 29 28 28 29 28 27 27 26 25 26 27 27 26 25 24 23 22 18 10 10 16 17 15 16 18 18 19 19 19 21 20 19 19 19 18 18 19 20 22 22 22 21 22 22 21 21 21 21 22 22 22 22 21 19 19 19 20 24 29 30 27 26 29 32 28 23 22 21 19 14 9 12 17
31 29 29 28 28 28 28 29 28 27 25 25 26 26 26 26 26 25 23 17 11 14 16 15 16 17 16 16 16 16 18 19 19 20 21 21 21 21 22 23 23 23 22 21 21 20 19 19 20 20 20 20 20 19 18 18 18 18 22 26 27 24 21 23 29 30 26 25 24 27 26 20 13 13
31 30 29 29 28 27 26 28 29 29 28 26 24 25 25 25 26 26 25 22 16 14 15 15 16 16 14 14 15 15 16 18 20 22 23 22 22 22 22 23 23 22 21 20 20 19 18 18 19 19 19 18 17 17 16 16 16 17 21 25 24 21 20 19 22 26 27 27 25 25 26 26 23 16
31 30 30 30 29 27 26 26 27 28 28 28 26 25 25 25 25 25 25 25 21 16 15 14 15 15 14 14 15 15 17 19 20 22 23 22 21 22 21 21 20 19 19 19 18 17 17 18 18 18 18 17 17 16 16 15 14 15 18 22 22 18 19 19 18 20 22 24 25 23 22 23 24 23
31 30 30 30 29 28 27 27 27 27 27 28 26 25 26 25 23 22 23 25 24 20 17 15 15 16 16 15 16 17 18 19 21 21 21 21 21 22 21 20 19 18 18 18 17 17 17 18 18 19 18 18 16 15 16 17 16 15 16 19 20 17 16 17 16 15 16 18 20 20 21 21 20 22
31 31 31 30 29 28 29 29 28 27 27 27 27 27 27 26 24 21 20 21 22 21 20 17 16 17 17 17 18 18 16 17 19 21 22 22 20 20 19 19 17 17 18 18 18 18 18 18 18 19 18 18 16 14 14 16 17 16 16 16 18 16 14 14 13 13 13 13 14 15 17 18 16 17
32 32 31 30 30 29 30 30 29 28 27 27 28 29 28 28 26 24 21 20 20 20 19 18 18 18 17 16 17 16 15 14 17 19 19 19 18 18 18 18 18 17 18 19 20 18 16 16 16 16 16 15 15 13 12 14 16 16 15 14 15 15 14 12 11 10 11 11 11 11 13 13 12 13
32 31 31 31 30 30 31 31 31 29 28 27 28 29 29 28 27 26 25 22 19 19 17 17 17 16 16 15 15 15 13 13 15 16 15 16 17 18 19 19 19 19 19 19 19 17 15 16 17 16 16 14 14 13 11 11 13 14 14 13 13 14 14 13 12 9 9 10 9 9 10 10 8 10
32 31 31 31 31 31 31 31 31 31 30 29 28 28 27 27 26 25 25 23 21 18 16 16 16 15 15 15 14 14 13 13 15 15 14 15 17 19 19 19 18 15 15 17 19 18 17 19 20 18 16 14 14 14 12 10 10 11 12 12 11 12 13 13 13 10 7 8 9 9 9 8 6 6
32 31 31 31 31 31 30 30 30 30 29 29 29 29 28 27 26 25 23 22 22 19 17 17 16 13 15 17 15 14 15 14 14 13 12 14 16 17 17 17 15 9 10 17 23 20 18 19 20 18 16 14 13 14 13 11 10 9 9 10 9 10 12 12 12 11 7 5 6 8 9 8 5 3
32 31 31 31 30 29 30 30 29 28 27 27 27 27 27 28 28 27 25 23 21 20 18 18 17 15 16 17 15 14 15 14 12 11 11 12 14 14 11 11 12 10 13 20 24 22 17 17 19 18 15 13 13 13 13 11 11 10 8 8 8 8 10 11 10 10 9 6 4 4 6 7 5 3
32 31 30 30 30 29 30 30 29 28 27 26 26 26 25 26 26 27 28 26 23 22 20 18 18 18 18 17 15 15 15 14 13 12 12 12 12 12 11 10 12 15 17 19 22 23 18 15 17 17 14 12 12 12 11 10 10 10 7 7 7 6 8 9 8 7 7 7 6 3 2 4 4 4
31 30 29 28 29 29 29 30 29 29 29 27 26 26 25 25 25 25 26 26 24 24 23 21 21 21 19 17 17 17 15 14 12 11 11 11 11 12 13 14 17 20 19 18 20 22 16 13 15 17 15 13 12 11 10 8 8 9 7 6 7 6 6 6 5 5 4 5 7 7 3 1 2 3
32 31 29 28 28 29 28 29 29 29 30 28 26 25 25 26 26 25 24 23 23 23 24 23 22 22 20 19 19 16 14 13 12 11 11 11 11 13 15 16 20 20 18 16 15 15 14 14 16 18 18 16 13 11 9 8 7 8 8 5 5 5 5 4 3 3 3 3 4 6 7 6 4 3
33 32 30 29 29 28 28 29 29 28 28 28 26 25 25 25 26 26 25 24 23 23 24 24 22 20 18 18 17 15 14 14 13 11 11 10 11 14 15 17 19 15 10 9 7 8 13 16 16 19 20 18 14 11 9 7 6 6 7 6 5 5 4 4 3 2 3 4 4 5 7 8 8 6
33 31 30 29 28 28 29 29 28 27 26 26 26 26 26 25 25 26 26 24 23 23 24 24 23 21 19 18 16 15 14 14 13 12 12 12 12 12 12 14 17 13 8 8 7 9 13 16 16 19 21 18 14 12 10 9 8 7 7 7 6 6 4 3 3 3 4 5 5 6 7 8 10 10
33 32 31 30 28 28 28 27 28 28 27 26 26 26 26 25 25 25 26 25 24 24 23 23 23 22 20 18 16 16 16 15 15 14 15 15 14 11 7 7 11 13 12 11 8 8 11 14 15 19 20 17 13 13 15 14 11 9 8 7 7 6 6 4 4 4 5 6 6 7 7 8 9 11
32 32 31 31 30 29 28 27 26 27 28 29 28 25 23 24 25 26 26 25 25 25 24 23 22 21 20 19 17 17 17 17 18 20 19 18 15 12 9 8 10 15 15 9 4 5 9 12 15 17 18 16 12 15 20 20 15 10 8 8 7 5 6 6 5 5 5 6 7 7 8 9 9 10
31 32 31 31 31 30 28 27 26 27 29 32 32 27 21 21 25 27 25 24 25 26 25 24 23 22 21 21 21 21 20 19 20 22 22 20 18 16 14 13 9 8 8 2 4 4 8 11 14 14 12 9 10 17 23 22 20 15 7 6 6 4 4 5 5 5 6 7 8 8 8 9 11 12
28 30 31 31 30 29 28 27 28 27 28 32 34 29 24 25 27 26 23 23 23 24 26 26 25 23 22 22 22 22 22 21 21 21 21 21 21 20 18 16 12 8 9 6 3 9 11 11 12 13 12 6 7 17 23 21 23 21 9 2 3 3 4 4 4 5 6 7 8 9 10 10 12 13
27 27 27 30 31 30 28 27 28 28 29 32 34 33 31 31 27 23 23 24 23 22 23 23 23 23 23 24 23 23 24 23 22 21 20 20 21 21 20 18 16 16 18 14 10 12 12 10 11 14 15 9 7 14 20 19 23 24 13 2 1 2 3 3 2 3 5 8 9 9 10 12 13 14
27 26 26 28 29 29 30 29 29 29 29 31 34 36 35 32 25 21 22 23 22 21 21 20 19 20 22 23 24 24 24 23 22 22 21 21 21 21 21 20 19 20 20 14 11 11 11 10 12 13 14 12 10 13 16 15 20 24 19 7 1 1 0 1 2 3 2 6 9 10 10 11 12 13
23 24 26 27 27 26 27 29 30 30 30 30 32 35 35 30 24 22 21 21 22 22 20 18 17 17 19 21 21 20 20 20 20 20 21 22 22 22 22 22 23 23 22 19 17 16 15 15 16 14 13 13 12 11 11 11 15 22 22 13 4 3 1 2 2 2 1 2 6 8 10 10 11 12
24 23 23 24 25 24 24 25 28 30 31 31 31 33 33 30 25 23 21 20 21 19 17 16 16 17 19 19 16 15 14 14 15 15 17 19 21 22 22 22 23 23 23 22 21 18 17 17 17 14 13 14 11 8 9 12 15 18 20 17 11 5 2 1 2 2 1 1 2 5 8 10 11 11
29 26 24 23 24 25 24 25 26 28 29 31 31 31 32 30 27 25 23 21 19 18 16 16 17 18 18 16 13 11 9 8 10 10 11 13 16 17 19 20 20 21 21 20 19 17 16 16 16 15 15 13 11 10 11 13 16 16 18 19 16 8 3 1 0 1 0 1 2 3 6 9 10 10
30 28 26 26 25 25 25 26 26 26 26 28 29 29 30 31 29 26 25 22 20 19 18 18 18 18 17 15 14 14 13 12 11 10 10 10 11 13 15 18 19 19 17 17 18 17 16 16 15 16 15 12 10 12 13 13 15 16 17 18 16 10 5 4 3 2 2 4 5 6 6 7 8 8
30 29 27 26 25 24 24 23 23 24 24 25 26 26 27 30 29 28 27 25 23 22 22 21 21 19 17 15 15 17 19 18 15 13 12 12 12 13 15 17 19 18 15 14 15 15 14 14 14 14 15 13 10 11 12 13 15 16 15 15 15 12 8 6 5 3 3 6 7 6 6 6 5 5
25 29 26 24 23 23 22 21 20 21 22 23 23 23 24 26 28 29 28 25 24 24 24 22 19 16 14 13 12 11 14 19 20 18 16 16 15 15 15 15 15 15 13 12 12 11 10 11 11 11 13 13 12 11 11 12 13 14 13 12 12 13 10 8 7 6 5 7 7 6 5 4 5 5
16 24 24 22 21 21 19 18 17 16 17 19 21 22 22 24 26 28 27 24 23 23 22 20 18 16 14 14 12 9 8 11 15 18 20 20 19 17 16 15 14 13 12 12 11 10 8 8 8 9 10 10 11 11 10 10 11 11 11 11 12 12 10 7 7 8 9 8 8 9 8 5 5 4
10 16 20 19 20 20 18 16 14 14 13 15 18 20 22 23 25 27 27 26 25 23 21 19 16 15 14 14 14 12 10 9 8 10 13 17 18 18 17 16 15 14 14 13 13 12 10 8 6 6 7 8 9 9 10 10 11 11 11 10 10 10 9 6 5 5 7 7 7 8 8 8 7 5
11 11 13 14 17 19 18 16 14 13 12 13 16 19 21 23 25 27 28 28 26 23 20 17 15 13 12 12 11 11 10 9 8 6 6 8 11 13 15 15 15 15 15 15 15 14 13 11 7 5 5 6 7 7 8 12 12 11 11 9 8 8 8 6 3 2 3 5 6 5 6 6 5 5
14 12 10 10 12 15 17 18 16 14 13 14 16 19 21 21 24 27 28 28 26 23 19 16 14 12 11 11 10 9 9 8 8 7 6 5 5 6 8 10 12 13 14 16 16 15 14 13 10 6 4 2 2 3 4 7 10 10 11 11 8 6 6 6 3 1 2 2 4 3 2 2 2 3
13 12 12 12 12 12 14 17 18 16 14 15 17 20 22 22 24 27 28 26 23 20 16 14 13 12 12 12 11 10 10 9 9 9 8 8 7 6 6 6 7 9 11 13 14 15 15 14 13 10 6 2 1 3 5 8 9 10 12 14 12 9 6 5 3 3 4 3 4 2 1 1 2 2
13 12 12 13 14 14 12 14 17 17 16 16 18 21 23 25 26 27 26 24 20 17 14 12 12 13 14 14 13 12 11 11 10 10 9 9 8 8 8 7 7 7 8 10 13 15 15 15 14 14 10 4 1 3 5 6 8 8 10 13 14 12 10 7 5 6 6 4 3 1 1 0 2 2
16 14 14 13 15 18 16 14 16 18 17 17 20 22 23 26 28 27 24 22 18 15 13 13 14 15 15 15 14 13 12 12 11 10 10 9 8 8 8 8 8 8 8 10 12 14 15 16 16 16 15 11 9 10 10 9 8 9 8 9 12 14 13 10 7 7 8 6 3 2 2 2 2 2
17 16 16 15 15 19 21 17 14 16 17 18 22 24 25 27 28 26 23 20 17 15 14 15 15 16 16 15 14 13 13 12 11 10 10 10 9 8 7 6 7 7 7 9 10 11 14 15 15 16 18 18 18 17 14 10 10 11 9 7 8 12 15 12 9 8 9 9 7 5 5 5 4 4
19 16 18 18 14 16 21 19 15 15 18 20 22 25 27 27 26 24 22 19 17 16 16 16 16 16 15 14 14 14 13 13 12 11 10 10 10 10 9 8 8 7 7 7 8 9 11 14 15 16 18 20 19 14 7 4 6 9 10 8 7 11 14 14 11 9 9 9 9 7 6 7 7 8
20 18 19 20 17 15 14 14 15 16 19 23 25 25 26 26 25 22 20 18 17 17 18 18 17 16 15 14 14 14 14 13 12 11 10 9 9 10 10 10 10 10 9 8 9 11 12 13 13 14 17 19 16 10 5 4 7 9 8 8 8 10 13 14 13 11 10 12 12 9 6 5 6 6
17 19 18 19 21 18 12 10 12 17 21 25 27 27 26 25 24 22 21 20 19 18 19 18 17 16 15 14 14 14 13 13 12 11 10 9 8 8 8 8 9 10 10 11 13 14 13 9 7 9 14 17 16 12 9 10 12 11 8 8 8 11 13 14 14 11 9 11 13 10 7 6 5 5
6 13 16 16 18 18 14 10 10 17 22 25 27 27 25 24 23 22 21 20 19 19 19 18 17 16 15 14 14 14 13 13 12 11 11 10 9 9 8 8 8 8 9 10 12 13 12 10 8 8 11 13 15 15 14 14 14 13 11 9 10 14 16 16 15 13 9 8 9 9 9 9 9 8
8 7 11 12 12 14 13 11 10 16 21 23 24 24 23 22 21 20 19 19 19 19 19 18 17 16 15 15 14 14 13 13 12 11 10 10 9 9 9 9 9 10 12 12 10 9 10 11 10 10 11 13 15 17 18 17 16 14 12 12 14 18 19 17 17 16 12 8 9 9 8 9 9 8
Wind_Direction
247 248 247 248 251 253 253 252 252 250 249 249 249 248 236 224 227 250 265 255 245 258 258 264 269 263 270 283 289 296 296 298 302 302 304 304 303 307 310 312 312 312 314 317 319 322 321 319 319 317 318 316 313 316 319 326 334 335 333 332 331 339 6 42 68 134 176 182 185 193 205 204 198 191
247 249 249 250 251 252 253 252 251 249 250 250 249 250 248 241 230 217 253 262 245 252 255 251 258 264 273 282 288 294 296 297 301 302 304 306 305 307 309 309 311 311 313 317 318 320 321 319 319 317 317 317 314 315 321 329 335 335 332 327 327 339 1 33 53 62 114 170 181 182 184 191 194 189
247 249 250 251 251 251 252 251 251 249 248 250 251 252 251 249 245 235 235 262 255 248 248 249 259 268 274 280 286 293 296 296 300 303 305 309 307 307 308 306 310 311 311 315 316 318 320 319 318 318 317 317 316 316 319 328 336 334 330 325 324 338 0 25 45 53 64 118 173 179 168 172 183 190
246 248 250 250 250 251 251 250 250 248 248 249 250 252 252 249 249 244 234 245 262 253 252 260 268 272 277 283 286 289 293 292 294 297 303 309 309 307 307 307 308 311 311 313 314 315 317 318 317 317 319 317 314 316 317 323 332 331 327 322 322 338 359 17 35 50 58 70 105 141 150 162 171 183
244 245 247 248 249 249 250 250 249 248 246 247 248 249 250 248 248 245 238 240 264 262 260 265 271 278 284 288 287 288 293 294 293 294 297 302 307 307 306 307 308 309 311 311 312 313 314 315 316 315 317 316 312 311 313 317 323 326 324 319 320 337 360 15 29 45 57 61 71 81 79 105 154 175
242 243 244 246 248 248 249 249 248 246 244 243 243 242 243 245 245 245 243 241 253 264 265 265 271 278 283 285 287 289 294 298 297 297 298 300 304 304 303 304 305 306 309 309 309 311 312 313 315 316 316 316 314 310 308 311 312 313 317 315 319 338 359 15 26 36 51 61 65 68 67 67 89 147
240 241 242 243 245 245 246 247 245 245 243 241 241 239 239 242 244 244 242 241 245 260 267 268 270 273 273 274 281 288 291 294 296 297 300 303 305 306 305 305 306 306 307 309 308 309 311 313 312 314 315 315 316 312 305 306 307 304 308 311 317 337 357 12 24 28 40 56 60 60 61 61 66 89
238 239 240 241 241 241 243 245 244 242 242 240 239 239 238 239 243 244 241 240 243 253 264 267 264 265 266 268 274 284 289 292 295 297 300 305 309 309 308 307 307 307 307 308 310 308 310 314 312 312 314 313 313 311 300 295 300 302 305 311 318 336 356 8 21 25 31 47 54 55 57 57 58 67
237 237 238 239 239 239 241 243 243 241 240 239 237 237 237 237 239 241 241 241 241 245 252 257 259 260 263 267 273 280 288 294 297 298 301 304 307 308 310 310 308 310 312 311 311 312 311 313 313 311 311 311 311 311 301 288 284 289 299 311 320 332 351 3 17 27 31 42 51 55 57 58 60 65
236 236 238 238 238 238 239 240 241 240 239 239 238 238 238 239 240 240 240 240 238 239 243 249 255 259 262 268 274 277 283 292 296 299 302 302 304 308 314 316 315 314 313 310 310 312 314 315 316 314 312 312 310 310 309 296 284 282 289 307 321 324 331 348 7 25 38 46 53 58 57 57 58 63
236 236 236 238 238 237 237 238 239 239 239 240 240 240 241 242 243 244 242 240 237 237 241 247 252 258 262 265 270 276 282 288 291 294 299 301 305 312 315 315 316 313 309 309 311 314 318 320 323 325 323 324 323 318 316 308 294 286 287 299 315 319 316 323 340 9 36 49 56 62 65 64 52 46
235 236 236 237 237 237 238 238 239 240 240 239 239 240 241 241 243 243 242 240 239 238 240 245 250 255 261 261 264 272 279 283 284 288 295 301 307 314 314 309 309 310 312 317 321 322 327 328 327 330 331 336 343 339 332 324 307 293 290 296 308 314 311 308 312 335 21 45 57 63 65 74 63 36
235 235 235 236 237 238 239 240 241 242 241 239 238 237 236 236 238 239 239 237 236 237 239 245 249 254 258 257 260 266 269 273 279 284 292 301 308 315 314 309 307 308 315 325 326 324 328 329 327 327 328 333 345 348 344 340 325 302 291 295 306 310 305 299 298 308 351 33 57 70 66 68 72 48
233 233 234 235 236 237 238 240 241 241 239 237 237 237 236 234 232 233 234 234 233 233 236 242 245 249 255 254 252 258 266 271 274 281 290 298 306 313 314 316 321 324 331 333 328 321 325 329 326 324 325 326 338 347 346 345 342 326 302 297 304 307 300 291 289 297 317 358 43 73 76 70 71 53
232 232 232 234 235 235 236 238 238 236 235 234 235 236 236 235 233 232 231 230 230 228 232 240 240 239 247 251 249 253 262 264 263 271 284 290 298 305 310 319 327 327 333 335 327 320 326 333 328 326 326 323 329 341 346 343 339 332 316 303 302 299 296 291 286 294 306 317 349 64 84 80 81 76
231 231 231 232 233 234 234 234 234 233 233 234 234 234 233 233 233 232 231 231 229 226 227 232 234 234 241 247 247 247 251 256 260 266 272 277 287 301 309 310 309 311 322 331 322 317 328 343 334 331 333 327 324 332 342 344 338 331 319 305 304 297 289 290 288 291 300 303 308 333 86 94 91 92
230 230 230 230 232 233 232 232 233 233 234 234 235 235 233 232 231 230 230 231 232 232 230 229 231 234 237 241 244 245 246 252 258 259 264 271 282 295 302 302 302 304 312 319 313 310 324 346 336 333 345 344 328 324 335 344 339 332 325 304 301 302 291 286 282 282 288 291 293 295 289 213 129 110
229 229 228 229 230 231 230 230 231 233 233 232 232 232 231 230 229 229 229 228 229 232 232 233 237 239 239 241 245 248 245 246 251 254 260 269 277 286 292 296 299 300 303 309 305 300 317 340 334 331 345 350 335 323 330 345 345 333 331 320 300 302 303 295 277 254 253 259 270 279 280 267 231 180
228 227 227 228 230 230 230 229 229 229 229 227 226 227 229 228 226 227 228 227 226 227 230 235 241 245 247 246 248 248 240 242 250 257 265 273 283 290 294 298 303 306 312 319 302 280 308 331 333 330 340 347 339 328 320 323 332 324 321 324 310 297 297 297 289 230 211 210 222 246 262 267 255 229
225 225 224 226 229 230 230 229 227 225 223 222 221 223 226 226 226 227 227 228 228 228 230 235 242 251 257 254 251 248 240 238 243 250 261 268 273 282 290 297 307 317 331 327 302 275 300 323 328 330 341 347 344 346 339 320 309 297 297 309 306 293 283 280 277 260 229 209 205 214 232 252 260 250
220 221 222 224 225 228 229 229 226 223 219 218 217 220 223 225 227 229 229 228 230 231 232 234 239 248 254 249 244 242 236 234 234 232 242 251 250 254 269 288 304 312 317 321 311 276 289 321 330 331 341 352 357 4 3 351 335 310 295 297 295 279 265 259 254 251 250 240 225 217 217 230 246 252
217 219 221 223 224 225 227 226 225 222 218 216 214 214 217 221 225 228 227 226 230 234 237 237 236 237 240 238 236 237 236 237 234 228 233 243 238 231 238 257 285 304 309 321 341 275 281 320 337 336 342 351 358 2 2 3 0 340 300 287 291 276 254 252 248 237 237 237 236 233 231 230 230 235
214 217 218 220 222 225 226 225 224 222 217 215 214 211 209 215 223 226 225 223 227 232 236 238 238 237 237 237 237 239 240 241 240 236 236 241 234 224 231 243 258 298 309 345 52 357 315 329 344 353 356 347 341 349 356 5 8 360 327 272 279 279 260 255 251 242 229 219 220 224 227 230 228 225
206 212 216 218 220 223 225 224 223 222 217 213 213 210 207 215 222 223 221 221 224 229 232 234 236 237 238 239 239 241 243 243 244 243 239 239 235 228 232 235 231 251 265 255 314 330 323 326 339 359 7 349 318 335 344 356 5 6 3 270 262 279 276 273 265 254 235 217 212 210 210 217 224 224
202 205 210 216 219 222 225 224 221 221 220 214 210 210 215 221 224 222 222 223 222 225 230 232 234 236 237 238 239 242 246 247 248 248 244 242 240 235 235 235 232 246 260 265 283 302 308 316 330 346 355 347 321 327 334 345 359 8 17 35 288 304 277 279 303 287 235 215 211 208 204 207 213 219
203 205 210 216 219 221 225 226 221 220 222 216 210 212 220 224 220 217 224 224 218 219 226 230 233 235 236 239 241 242 246 247 247 246 244 245 247 245 245 246 243 248 260 270 279 287 294 307 318 332 341 338 329 329 331 336 353 7 18 27 40 74 108 279 318 327 248 206 208 208 203 202 206 212
202 206 211 214 216 220 224 224 222 220 222 220 214 213 218 219 212 210 218 219 213 215 221 223 226 230 233 237 240 240 241 242 242 242 241 241 244 247 249 252 252 255 264 272 275 277 281 288 294 305 318 323 325 329 328 327 344 0 8 16 57 108 78 307 300 311 306 205 202 201 200 198 199 206
207 207 208 209 213 219 222 223 222 220 221 222 220 217 216 213 205 202 208 213 210 208 209 212 217 224 228 229 231 233 236 237 238 241 241 238 239 243 247 252 255 260 266 272 273 273 276 278 282 291 302 310 315 318 321 324 332 346 358 9 29 51 36 321 295 292 287 211 177 183 190 189 187 193
210 210 213 216 219 222 224 227 227 226 224 223 223 221 216 209 201 197 201 207 204 199 201 206 212 221 226 225 226 231 230 228 233 239 240 237 235 237 243 250 256 260 265 270 272 272 272 274 280 288 294 298 299 300 307 317 323 334 350 1 9 20 35 45 336 232 215 153 144 153 171 177 179 181
208 210 214 220 223 224 225 227 227 228 229 229 229 226 216 205 198 196 198 200 199 198 201 204 210 220 226 226 230 235 233 228 230 233 234 236 232 229 234 241 248 256 262 266 268 269 270 272 276 282 286 286 285 290 299 308 315 328 347 0 7 14 31 53 70 96 108 113 115 113 121 140 159 169
205 206 211 217 221 224 228 230 228 227 228 230 232 229 217 204 197 197 200 201 202 204 206 207 212 219 223 225 231 236 234 233 234 232 231 233 232 229 229 232 239 250 258 263 265 265 265 268 268 269 271 271 271 282 296 303 309 321 340 359 5 6 16 40 48 54 116 132 117 91 84 91 102 124
199 200 205 211 214 220 230 237 238 233 227 227 229 226 220 211 202 198 201 203 204 207 207 204 205 206 207 212 221 230 231 231 233 234 231 230 231 228 223 222 230 242 251 258 264 262 258 261 264 265 266 265 265 274 288 296 303 314 330 346 353 356 9 38 48 46 86 124 119 90 72 67 68 84
192 191 196 203 207 214 225 233 239 237 228 225 225 221 217 213 204 197 198 199 199 199 196 192 194 200 207 215 223 235 240 234 233 233 229 228 230 224 217 218 226 234 239 246 253 254 249 251 260 267 267 265 265 266 271 283 294 301 312 329 341 349 2 32 53 49 54 76 97 96 88 76 67 71
201 187 189 196 202 210 219 227 233 236 229 222 221 213 205 202 197 191 190 191 190 188 187 188 195 205 214 222 228 236 244 246 247 240 229 226 224 215 209 215 226 232 234 238 244 247 242 234 244 261 262 266 275 264 244 251 276 290 295 307 324 335 349 18 47 46 40 50 73 89 87 79 69 59
221 200 188 192 198 205 215 223 227 231 229 222 211 198 191 190 187 181 180 182 183 183 185 191 198 204 212 222 229 235 240 243 248 250 238 229 224 215 211 215 222 228 230 232 238 242 234 222 222 236 242 261 292 288 243 234 251 272 280 286 300 317 331 354 31 68 49 37 44 65 82 81 65 44
217 209 200 202 200 199 208 218 223 226 227 220 202 184 178 179 177 175 176 178 181 183 186 190 196 203 209 214 219 228 234 237 240 244 243 242 242 235 227 226 228 230 228 227 231 230 221 214 212 206 201 222 288 308 276 246 240 247 259 266 271 282 305 330 357 145 159 53 42 56 77 63 38 28
211 211 210 214 215 209 206 210 217 223 223 214 195 179 173 173 172 173 175 177 180 184 189 195 201 205 206 206 210 220 229 236 242 248 253 258 263 263 254 246 244 240 234 232 231 222 214 212 207 197 193 202 221 257 283 281 261 244 242 248 250 248 260 293 299 193 172 113 78 94 121 51 19 350
206 213 214 217 219 223 222 212 210 218 221 206 187 177 173 172 172 173 175 177 180 185 191 200 206 206 207 208 212 217 224 229 234 241 248 257 266 268 262 253 249 248 248 250 244 231 221 217 209 202 199 193 204 241 256 267 270 263 247 242 241 238 238 247 237 201 180 147 113 130 173 257 296 281
201 207 213 219 216 219 230 229 211 211 215 198 179 174 173 171 171 173 174 176 182 187 193 200 204 207 210 213 215 218 221 221 223 226 231 238 249 263 267 258 249 248 252 254 251 239 225 218 214 209 204 204 221 239 241 243 270 296 292 260 244 236 234 235 230 215 206 200 198 192 169 190 252 252
196 201 208 218 214 212 225 236 226 212 207 191 175 174 173 169 168 171 174 177 182 188 194 201 205 209 214 215 215 218 220 221 223 224 225 230 238 249 262 268 261 253 245 245 247 235 222 220 223 222 222 228 239 248 250 252 271 290 296 279 251 237 232 231 229 227 223 218 216 207 179 171 180 192
194 200 207 215 218 213 217 231 241 227 205 187 176 174 173 171 171 173 176 180 185 189 196 202 206 210 213 213 214 218 220 223 227 227 227 233 238 242 253 267 271 269 263 259 256 246 239 244 251 248 242 240 239 238 235 235 257 270 273 269 250 232 228 229 230 234 238 232 222 207 186 175 174 178
198 202 204 210 219 221 217 228 243 231 202 185 178 176 173 173 174 176 177 181 187 193 198 202 204 208 211 212 215 219 222 226 229 230 232 238 242 245 253 258 260 265 268 267 266 268 267 264 259 249 241 231 221 212 196 200 229 247 256 252 234 215 214 221 224 225 234 236 229 217 194 173 159 161
209 206 203 206 215 221 228 237 229 210 190 179 176 176 173 171 172 175 177 181 188 195 199 201 203 207 209 210 213 218 223 228 230 231 231 230 233 242 250 252 255 260 262 262 266 268 267 258 241 231 229 222 212 206 205 213 225 233 236 230 210 190 191 208 218 218 220 223 222 226 233 218 193 188
203 199 200 206 211 215 227 239 209 182 173 170 169 170 170 170 171 174 179 184 190 196 199 200 202 204 206 209 212 218 223 226 229 233 234 234 236 241 245 251 260 263 264 268 271 265 256 248 238 229 226 221 215 212 211 212 219 223 221 211 189 175 180 196 210 216 221 208 200 219 245 239 224 231
67 140 174 193 201 202 211 222 196 167 161 162 163 164 166 169 171 175 181 187 192 195 196 197 199 202 205 210 214 218 222 225 227 230 232 234 236 239 243 250 260 264 265 268 273 270 265 261 250 237 234 235 232 229 223 216 212 211 207 196 181 175 181 193 200 204 209 201 187 199 225 232 229 237